Location: Blaison
(47.4000°N, 0.3667°W)
Time: 06:38:43
(UTC+01:00)

ISS - Visible Passes

Search period start: 02 December 2023 00:00
Search period end: 12 December 2023 00:00
Orbit: 416 x 417 km, 51.6° (Epoch: 01 December)

Date Brightness Start Highest point End Pass type
(mag) Time Alt. Az. Time Alt. Az. Time Alt. Az.
02 Dec -3.2 19:04:01 10° WNW 19:07:19 55° SSW 19:08:24 35° SSE visible
03 Dec -3.7 18:15:31 10° WNW 18:18:53 82° SSW 18:22:14 10° ESE visible
03 Dec -1.0 19:53:05 10° W 19:55:12 16° SW 19:55:29 16° SW visible
04 Dec -1.5 19:04:06 10° W 19:06:53 24° SW 19:09:40 10° SSE visible
05 Dec -2.2 18:15:21 10° WNW 18:18:29 38° SW 18:21:37 10° SE visible
06 Dec -0.3 19:05:25 10° WSW 19:06:08 11° SW 19:06:52 10° SW visible
07 Dec -0.7 18:15:30 10° W 18:17:46 17° SW 18:20:01 10° S visible
